[[{"header":{"parameterUnit":"m.s-1","parameterCategory":1,"la1":30.2991,"la2":30.254,"lo1":-89.0895,"lo2":-89.0444,"dy":0.0017,"dx":0.0017,"nx":28,"ny":28,"refTime":"2025-06-22T03:00:00:Z","depth":0,"parameterNumber":2,"parameterNumberName":"U-component_of_WINDS"},"data":[0,0,0,0,0,0,0,0,0,0,0,0,0,0,0,0,0,0,0,0,0,0,0,0,0,0,0,0,0,0,0,0,0,0,0,0,0,0,0,0,0,0,0,0,0,0,0,0,0,0,0,0,0,0,0,0,0,0,-0.8546,-0.8547,0,-0.8569,-0.8569,-0.8569,-0.8551,-0.855,-0.8549,-0.8548,-0.8573,-0.8574,-0.8575,0,0,0,0,0,0,0,0,0,0,0,0,0,-0.8488,-0.849,-0.8546,-0.8547,-0.8547,-0.8569,-0.8569,-0.8569,-0.8551,-0.855,-0.8549,-0.8548,-0.8572,-0.8574,-0.8575,0,0,0,0,0,0,0,0,0,0,0,0,0,-0.8513,-0.849,-0.8546,-0.854,-0.854,-0.8569,-0.8569,-0.8569,-0.8551,-0.855,-0.8549,-0.8548,-0.8572,-0.8574,-0.8576,-0.8612,0,0,-0.8582,-0.8583,0,0,0,0,0,0,0,0,-0.8511,-0.8515,-0.8541,-0.8541,-0.854,-0.8556,-0.8557,-0.8584,-0.8551,-0.8547,-0.8548,-0.8547,-0.8568,-0.857,-0.8577,-0.8613,-0.8614,-0.8582,-0.8583,-0.8584,-0.8585,0,0,0,0,0,0,0,-0.851,-0.8514,-0.8555,-0.8541,-0.8541,-0.8537,-0.8539,-0.8562,-0.8564,-0.8547,-0.8546,-0.8549,-0.8568,-0.8575,-0.8577,-0.8614,-0.8582,-0.8584,-0.8585,-0.8586,-0.8681,-0.8682,0,0,0,0,0,0,-0.8508,-0.8512,-0.8555,-0.8556,-0.8523,-0.8539,-0.8541,-0.8552,-0.8563,-0.8564,-0.855,-0.8548,-0.8572,-0.8575,-0.8578,-0.8622,-0.8584,-0.8586,-0.8587,-0.868,-0.8681,-0.8682,0,0,0,0,0,0,-0.8507,-0.8512,-0.8554,-0.8534,-0.8539,-0.8541,-0.8553,-0.8553,-0.8561,-0.8565,-0.8566,-0.8557,-0.8571,-0.8575,-0.8603,-0.8622,-0.8587,-0.8589,-0.8678,-0.868,-0.8682,-0.8708,0,0,0,0,0,0,-0.8506,-0.8512,-0.8526,-0.8534,-0.854,-0.8578,-0.8555,-0.8554,-0.8564,-0.8562,-0.8572,-0.8573,-0.8571,-0.86,-0.8605,-0.8624,-0.859,-0.8676,-0.8679,-0.8681,-0.8706,-0.8711,-0.8715,0,0,0,0,0,-0.8504,-0.8532,-0.8526,-0.8532,-0.8557,-0.8579,-0.8583,-0.8579,-0.8566,-0.8579,-0.8582,-0.8573,-0.8619,-0.8604,-0.8609,-0.8629,-0.8675,-0.8678,-0.8681,-0.8704,-0.871,-0.8715,0,0,0,0,0,0,-0.8526,-0.8533,-0.8527,-0.8559,-0.8569,-0.8576,-0.8594,-0.8586,-0.86,-0.8597,-0.8593,-0.8595,-0.8625,-0.8629,-0.8612,-0.8664,-0.8645,-0.8649,-0.866,-0.8666,-0.8671,-0.8669,-0.8592,0,0,0,0,0,-0.8535,-0.8552,-0.8558,-0.8586,-0.8591,-0.8591,-0.8601,-0.8598,-0.8608,-0.8612,-0.8617,-0.8627,-0.8644,-0.8655,-0.8671,-0.8706,-0.8708,-0.8722,-0.8727,-0.8731,-0.8735,-0.8754,-0.876,-0.8692,-0.8692,-0.8692,0,0,-0.8553,-0.8559,-0.8571,-0.859,-0.8597,-0.8616,-0.8595,-0.8615,-0.8629,-0.8615,-0.8642,-0.8646,-0.8657,-0.8689,-0.8703,-0.8693,-0.8754,-0.8735,-0.8738,-0.8739,-0.8757,-0.8764,-0.877,-0.8694,-0.8694,-0.8693,0,0,-0.8596,-0.8602,-0.8626,-0.8634,-0.8644,-0.8645,-0.865,-0.8659,-0.8661,-0.8688,-0.8677,-0.8694,-0.8723,-0.8731,-0.8739,-0.8785,-0.8777,-0.879,-0.8815,-0.8834,-0.8839,-0.8844,-0.8861,-0.8867,-0.8794,-0.8794,-0.8794,0,-0.8618,-0.8645,-0.864,-0.8661,-0.867,-0.8657,-0.8682,-0.8689,-0.8705,-0.8712,-0.8701,-0.8737,-0.8744,-0.8777,-0.8788,-0.8795,-0.8802,-0.879,-0.8839,-0.8844,-0.8848,-0.8864,-0.887,-0.8796,-0.8796,-0.8795,-0.8795,0,-0.8671,-0.869,-0.8708,-0.8723,-0.8734,-0.8757,-0.8756,-0.8768,-0.8763,-0.8764,-0.8792,-0.8799,-0.8816,-0.8824,-0.882,-0.8857,-0.8851,-0.884,-0.882,-0.8856,-0.8871,-0.8877,-0.8798,-0.8797,-0.8797,-0.8797,0,0,-0.873,-0.8741,-0.8748,-0.8755,-0.8765,-0.878,-0.8802,-0.8819,-0.8829,-0.884,-0.8859,-0.8884,-0.8873,-0.8882,-0.8879,-0.8895,-0.8931,-0.8882,-0.8882,-0.8891,-0.8973,-0.8982,-0.8989,-0.8925,-0.8927,-0.8927,-0.8972,0,-0.8774,-0.8812,-0.8808,-0.8845,-0.8862,-0.885,-0.8869,-0.8878,-0.888,-0.8895,-0.8897,-0.8915,-0.89,-0.8905,-0.8921,-0.8924,-0.8948,-0.892,-0.8943,-0.8944,-0.8942,-0.8997,-0.9007,-0.9049,-0.8978,-0.8979,-0.898,0,-0.883,-0.8843,-0.8881,-0.8889,-0.8896,-0.8914,-0.8928,-0.8943,-0.8953,-0.8953,-0.8963,-0.8956,-0.8979,-0.8959,-0.899,-0.8971,-0.898,-0.8983,-0.8985,-0.8987,-0.8965,-0.9002,-0.9062,-0.9069,-0.8989,-0.8988,-0.8988,0,-0.887,-0.8896,-0.8923,-0.8928,-0.8938,-0.8951,-0.8955,-0.8964,-0.8974,-0.8987,-0.8993,-0.9009,-0.9017,-0.9029,-0.9028,-0.9013,-0.906,-0.9039,-0.9061,-0.9061,-0.9072,-0.9071,-0.9135,-0.9077,-0.9077,-0.9076,-0.9076,0,-0.8919,-0.8944,-0.894,-0.8957,-0.8983,-0.8978,-0.9005,-0.9008,-0.9016,-0.9033,-0.9023,-0.9039,-0.9035,-0.9051,-0.905,-0.9076,-0.908,-0.9081,-0.9081,-0.9082,-0.9082,-0.9089,-0.9086,-0.9078,-0.9078,-0.9077,-0.9077,0,-0.8969,-0.8967,-0.8995,-0.9002,-0.9004,-0.9024,-0.9029,-0.9045,-0.9046,-0.9067,-0.9072,-0.9073,-0.9092,-0.9091,-0.9112,-0.9111,-0.9143,-0.9139,-0.914,-0.9139,-0.9161,-0.9159,-0.9232,-0.9241,-0.9176,-0.9177,-0.9177,0,-0.9001,-0.9019,-0.9027,-0.9038,-0.9043,-0.906,-0.907,-0.9066,-0.9077,-0.9089,-0.9103,-0.912,-0.9134,-0.9164,-0.9167,-0.9183,-0.918,-0.9204,-0.9182,-0.9183,-0.9181,-0.918,-0.9182,-0.9209,-0.9209,-0.921,-0.921,0,-0.9058,-0.9057,-0.9071,-0.9086,-0.9098,-0.9109,-0.9119,-0.9129,-0.9125,-0.9138,-0.9156,-0.9167,-0.9188,-0.9206,-0.9221,-0.9226,-0.9218,-0.9217,-0.9223,-0.9225,-0.9225,-0.9226,-0.9152,-0.9216,-0.9215,-0.9215,-0.9214,-0.9214,-0.91,-0.9116,-0.9124,-0.9141,-0.9148,-0.9158,-0.9172,-0.9175,-0.919,-0.9206,-0.9203,-0.9224,-0.9233,-0.9252,-0.9259,-0.9275,-0.9267,-0.9275,-0.9277,-0.928,-0.9282,-0.9222,-0.9278,-0.9278,-0.9278,-0.9277,-0.9277,0,-0.9158,-0.9162,-0.9177,-0.9192,-0.9205,-0.9195,-0.9206,-0.9218,-0.9236,-0.9245,-0.9259,-0.928,-0.9297,-0.9301,-0.9317,-0.9329,-0.9326,-0.9334,-0.9333,-0.9335,-0.9289,-0.9282,-0.9336,-0.9336,-0.9336,-0.9336,-0.9336,-0.9336,-0.9189,-0.9215,-0.9214,-0.9244,-0.9248,-0.9268,-0.9275,-0.9284,-0.9291,-0.9315,-0.9329,-0.9331,-0.9338,-0.9355,-0.937,-0.9371,-0.9377,-0.9387,-0.9386,-0.9344,-0.9338,-0.9332,-0.9326,-0.9388,-0.9388,-0.943,-0.9431,-0.9431]},{"header":{"parameterUnit":"m.s-1","parameterCategory":1,"la1":30.2991,"la2":30.254,"lo1":-89.0895,"lo2":-89.0444,"dy":0.0017,"dx":0.0017,"nx":28,"ny":28,"refTime":"2025-06-22T03:00:00:Z","depth":0,"parameterNumber":3,"parameterNumberName":"V-component_of_WINDS"},"data":[0,0,0,0,0,0,0,0,0,0,0,0,0,0,0,0,0,0,0,0,0,0,0,0,0,0,0,0,0,0,0,0,0,0,0,0,0,0,0,0,0,0,0,0,0,0,0,0,0,0,0,0,0,0,0,0,0,0,1.1453,1.1453,0,1.1433,1.1432,1.1432,1.136,1.1359,1.1357,1.1355,1.1336,1.1337,1.1338,0,0,0,0,0,0,0,0,0,0,0,0,0,1.1432,1.1433,1.1453,1.1453,1.1453,1.1433,1.1432,1.1432,1.1361,1.1359,1.1357,1.1355,1.1336,1.1337,1.1338,0,0,0,0,0,0,0,0,0,0,0,0,0,1.143,1.1433,1.1453,1.1415,1.1411,1.1433,1.1432,1.1432,1.1361,1.1358,1.1356,1.1354,1.1335,1.1337,1.1338,1.1396,0,0,1.1343,1.1343,0,0,0,0,0,0,0,0,1.143,1.143,1.1421,1.1417,1.1413,1.1396,1.1418,1.142,1.1362,1.138,1.1355,1.1353,1.1358,1.1358,1.1359,1.1395,1.1394,1.1343,1.1344,1.1344,1.1345,0,0,0,0,0,0,0,1.143,1.1431,1.1445,1.1421,1.1416,1.1399,1.1396,1.1418,1.1383,1.1378,1.1373,1.1371,1.1356,1.1358,1.1358,1.1394,1.1343,1.1344,1.1345,1.1346,1.1477,1.1479,0,0,0,0,0,0,1.1436,1.1432,1.1446,1.1445,1.1416,1.1401,1.1398,1.1404,1.1383,1.1377,1.1373,1.1368,1.1357,1.1356,1.1357,1.1423,1.1344,1.1346,1.1347,1.1474,1.1477,1.148,0,0,0,0,0,0,1.1435,1.1438,1.1447,1.1437,1.1436,1.1404,1.1412,1.1405,1.1407,1.1379,1.1373,1.1382,1.1355,1.1355,1.1387,1.1422,1.1346,1.1348,1.1471,1.1475,1.1479,1.1556,0,0,0,0,0,0,1.1435,1.1438,1.1459,1.1438,1.1437,1.1476,1.1414,1.1407,1.141,1.1403,1.1385,1.138,1.1353,1.1385,1.1388,1.1422,1.1349,1.1468,1.1473,1.1478,1.1551,1.1562,1.1573,0,0,0,0,0,1.1435,1.1482,1.1461,1.1463,1.1463,1.1479,1.1478,1.1445,1.1413,1.1434,1.1416,1.1381,1.1418,1.1389,1.1392,1.1427,1.1466,1.1472,1.1477,1.1546,1.156,1.1572,0,0,0,0,0,0,1.1509,1.1479,1.1454,1.1496,1.1491,1.1466,1.1492,1.1462,1.1465,1.1459,1.1418,1.1415,1.1452,1.1443,1.1412,1.1482,1.1436,1.1442,1.1487,1.15,1.1511,1.1512,1.135,0,0,0,0,0,1.1531,1.1545,1.1518,1.1558,1.1556,1.1525,1.153,1.1506,1.1498,1.1495,1.1479,1.1474,1.1484,1.1492,1.15,1.1549,1.1544,1.1575,1.1586,1.1595,1.1601,1.1626,1.1639,1.1499,1.1499,1.1499,0,0,1.1575,1.156,1.1572,1.1572,1.1565,1.1581,1.1523,1.1543,1.1555,1.1498,1.1527,1.1516,1.1507,1.1548,1.1565,1.1541,1.1639,1.1602,1.161,1.1611,1.1634,1.1647,1.1659,1.1503,1.1503,1.1502,0,0,1.1664,1.1654,1.1686,1.168,1.1669,1.1648,1.1656,1.1636,1.1626,1.1654,1.1612,1.1626,1.1645,1.164,1.164,1.1728,1.1695,1.1732,1.1789,1.1814,1.1825,1.1834,1.1865,1.1877,1.1738,1.1738,1.1738,0,1.172,1.1743,1.1706,1.1729,1.173,1.168,1.1712,1.1707,1.17,1.1703,1.1676,1.1698,1.1689,1.1727,1.1749,1.1751,1.1759,1.1733,1.1826,1.1835,1.1844,1.1873,1.1884,1.1742,1.1742,1.1742,1.1741,0,1.1812,1.1829,1.1856,1.1849,1.1854,1.1881,1.1849,1.1859,1.1834,1.1816,1.1845,1.1832,1.1837,1.1844,1.182,1.188,1.1865,1.1833,1.1785,1.1862,1.1888,1.1899,1.1749,1.1747,1.1746,1.1745,0,0,1.1947,1.192,1.1931,1.1927,1.1911,1.1923,1.1949,1.1952,1.1961,1.1958,1.1978,1.1995,1.1965,1.1965,1.1941,1.1963,1.2033,1.1928,1.1927,1.1947,1.2097,1.2121,1.2134,1.2011,1.2013,1.2015,1.2097,0,1.2031,1.2071,1.2039,1.2086,1.21,1.2053,1.2075,1.2068,1.2052,1.2063,1.2045,1.2058,1.2018,1.2017,1.2037,1.202,1.2062,1.2014,1.2029,1.203,1.2032,1.2148,1.2173,1.2251,1.2108,1.2109,1.2111,0,1.2133,1.2134,1.2182,1.2163,1.2168,1.2188,1.2189,1.2199,1.2191,1.2178,1.2179,1.2148,1.2172,1.2126,1.2158,1.2126,1.2131,1.2124,1.2126,1.2125,1.2075,1.215,1.2276,1.2287,1.2127,1.2125,1.2124,0,1.2226,1.2239,1.2269,1.2268,1.2247,1.2262,1.2254,1.2243,1.2248,1.2249,1.2251,1.2255,1.2257,1.2262,1.2233,1.2203,1.2269,1.2221,1.2259,1.226,1.2274,1.2274,1.2402,1.2279,1.2279,1.2279,1.2279,0,1.2322,1.2353,1.231,1.2329,1.2362,1.2326,1.236,1.2347,1.2338,1.2354,1.2314,1.2329,1.2291,1.2303,1.2281,1.2311,1.2313,1.2303,1.2297,1.2306,1.2307,1.2308,1.2301,1.2282,1.2281,1.2281,1.228,0,1.243,1.2403,1.2432,1.241,1.2406,1.2431,1.2412,1.2429,1.2411,1.2431,1.2433,1.2405,1.2417,1.2389,1.2397,1.2383,1.2425,1.2411,1.2428,1.2423,1.2462,1.2459,1.2595,1.2611,1.2479,1.248,1.2481,0,1.2493,1.2515,1.2496,1.2503,1.2497,1.2509,1.2513,1.2479,1.2485,1.2477,1.2495,1.2503,1.2508,1.2529,1.2509,1.2515,1.25,1.2548,1.2501,1.251,1.25,1.2499,1.2501,1.2557,1.2559,1.256,1.2561,0,1.2607,1.2592,1.2599,1.2601,1.2607,1.2608,1.2605,1.2614,1.2577,1.2586,1.2597,1.2601,1.2609,1.2618,1.2619,1.2612,1.2581,1.2576,1.2585,1.2594,1.2603,1.2598,1.2453,1.2573,1.2572,1.2571,1.257,1.257,1.2694,1.2711,1.27,1.2709,1.2704,1.2702,1.2716,1.27,1.2708,1.2712,1.2691,1.2707,1.2698,1.2697,1.2693,1.2705,1.2684,1.2697,1.27,1.2704,1.271,1.2602,1.2706,1.2705,1.2705,1.2705,1.2704,0,1.2805,1.2795,1.2804,1.2801,1.2809,1.2779,1.2774,1.2783,1.2797,1.2791,1.2797,1.281,1.2818,1.28,1.2805,1.2819,1.2805,1.2821,1.282,1.2818,1.2729,1.272,1.2833,1.2833,1.2833,1.2833,1.2833,1.2832,1.2863,1.2891,1.2876,1.2901,1.2891,1.2906,1.2906,1.2905,1.29,1.2916,1.2923,1.291,1.29,1.2904,1.2911,1.2905,1.2909,1.2931,1.292,1.2837,1.2825,1.2813,1.2804,1.2932,1.2932,1.3008,1.3009,1.3009]}]]